TOMSK-TPU 120 (42910 NORAD) Tracking and Keplerian Element Data

This shows tracking and keplerian element data for the satellite.

Feedback or suggestion? Click here.




ElementValue
Catalog42910
NameTOMSK-TPU 120
Epoch Orbit7600
Epoch Day350.69718703
Epoch Year2018
RAAN157.8244
Inclination51.6347
Eccentricity0.0005825
Argument of Perigee175.9011
Mean Anonmoly272.6036
Mean Motion15.70949431
Decay Rate0.00019289
L11 42910U 98067MZ 18350.69718703 .00019289 00000-0 15521-3 0 9990
L22 42910 51.6347 157.8244 0005825 175.9011 272.6036 15.70949431 76001

Live tracking and technical data element details for TOMSK-TPU 120 (NORAD 42910). TOMSK-TPU 120 can be tracked NOW for your location showing map with azimuth and elevation plus other details from your city location.

Track the satellite on the map from your city or location and see movement details for azimuth, elevation, latitude, longitude, range, height, and movement on the map or in text.







IsCatalogInMostPopularTable: catalog: 42910, numindb: 169
Update: records affected: 1



GetName: 42910 TOMSK-TPU 120

Hit Count: updated at: Tue, 18 Dec 2018 21:30:18 GMT